#timestamp,LO_Frequency,Hit,StdDev 
1616526015.2,286046999.3,N
1616526035.1,286047000.3,N
1616526036.0,286047000.3,N
1616526055.8,286047000.9,N
1616526075.6,286047000.6,N
1616526095.5,286046996.6,N
1616526115.3,286046997.6,N
1616526135.2,286046997.4,N
1616526155.9,286046995.0,N
1616526175.7,286046997.1,N
1616526195.6,286046995.1,N
1616526215.4,286046999.6,N
1616526235.2,286046998.2,N
1616526255.1,286047000.8,N
1616526256.0,286047000.8,N
1616526275.8,286046999.0,N
1616526295.7,286046998.0,N
1616526315.5,286046996.2,N
1616526335.3,286046993.8,Y
1616526355.2,286046997.2,P
1616526375.0,286046999.5,N
1616526375.9,286046999.5,N
1616526395.8,286046997.4,N
1616526415.6,286046997.4,N
1616526435.4,286046998.9,N
1616526455.3,286046999.7,N
1616526475.1,286047001.8,N
1616526495.9,286047001.5,N
1616526515.7,286047002.6,N
1616526535.5,286047001.4,N
1616526555.4,286047002.6,N
1616526575.2,286047000.0,N
1616526595.0,286046999.4,N
1616526595.9,286046999.4,N
1616526615.8,286046998.3,N
1616526635.6,286046998.5,N
1616526655.5,286046997.4,N
1616526675.3,286046998.6,N
1616526695.1,286046998.2,N
1616526715.9,286046998.4,N
1616526735.7,286046999.5,N
1616526755.5,286047000.7,N
1616526775.4,286046997.5,N
1616526795.2,286046996.6,N
1616526815.0,286046997.6,N
1616526816.0,286046997.6,N
1616526835.8,286046996.4,N
1616526855.6,286046997.8,N
1616526905.5,286046997.1,E
1616526915.4,286046996.6,N
1616526935.2,286047001.1,P
1616526955.1,286047001.9,N
1616526956.0,286047001.9,N
1616526975.8,286047001.4,N
1616526995.7,286047005.5,N
1616527015.5,286047001.5,N
1616527035.3,286047004.0,N
1616527055.2,286047002.6,N
1616527075.0,286047001.5,N
1616527075.9,286047001.5,N
1616527095.8,286046998.5,N
1616527115.6,286047000.6,N
1616527135.4,286047002.7,N
1616527155.3,286046998.4,N
1616527175.1,286046998.9,N
1616527195.8,286046998.8,N
1616527215.7,286047000.3,N
1616527235.5,286047001.9,N
1616527255.4,286047002.3,N
1616527275.2,286047001.5,N
1616527295.0,286047002.5,N
1616527295.9,286047002.5,N
1616527315.8,286047000.3,N
1616527335.6,286046998.9,N
1616527355.4,286046999.2,N
1616527375.3,286046999.5,N
1616527395.1,286046996.9,N
1616527415.8,286047001.1,N
1616527435.7,286046999.9,N
1616527455.5,286047001.1,N
1616527475.4,286047004.4,N
1616527495.2,286047000.6,N
1616527515.0,286046998.4,N
1616527515.9,286046998.4,N
1616527535.8,286046999.5,N
1616527555.6,286046997.4,N
1616527575.4,286046998.4,N
1616527595.3,286046996.5,N
1616527615.1,286046996.5,N
1616527635.9,286046996.4,N
1616527655.7,286047001.1,N
1616527675.5,286047000.0,N
1616527695.4,286047000.2,N
1616527715.2,286047004.4,N
1616527735.0,286047003.3,N
1616527735.9,286047003.3,N
1616527755.8,286047004.9,N
1616527775.6,286047007.4,Y
1616527795.5,286047008.7,P
1616527815.3,286047008.4,N
1616527835.1,286047009.9,N
1616527855.9,286047010.2,N
1616527875.7,286047012.2,Y
1616527895.6,286047004.5,P
1616527915.4,286047003.1,N
1616527935.2,286047003.6,N
1616527955.1,286047005.5,Y
1616527956.0,286047005.5,P
1616527975.8,286047002.5,P
1616527995.6,286047000.1,N
1616528015.5,286047001.8,N
1616528035.3,286047002.6,N
1616528055.2,286047000.3,N
1616528075.9,286046999.3,N
1616528095.7,286046999.4,N
1616528115.6,286046999.1,N
1616528135.4,286047000.9,N
1616528155.2,286047002.6,N
1616528175.1,286046998.6,N
1616528176.0,286046998.6,N
1616528195.8,286047001.0,N
1616528215.7,286047000.8,N
1616528235.5,286047000.6,N
1616528255.3,286047000.9,N
1616528275.2,286046998.6,N
1616528295.9,286046996.9,N
1616528315.7,286046997.3,N
1616528335.6,286046998.7,N
1616528355.4,286047002.7,N
1616528375.2,286047000.0,N
1616528395.1,286046999.2,N
1616528396.0,286046999.2,N
1616528415.8,286046998.5,N
1616528435.7,286046998.3,N
1616528455.5,286046998.8,N
1616528475.3,286047000.4,N
1616528495.2,286046998.1,N
1616528515.0,286046998.6,N
1616528515.9,286046998.6,N
1616528535.7,286046999.9,N
1616528555.6,286047000.2,N
1616528575.4,286046998.7,N
1616528595.3,286047000.6,N
1616528615.1,286046999.2,N
1616528616.0,286046999.2,N
1616528635.8,286046999.2,N
1616528655.7,286046998.9,N
1616528675.5,286046995.2,Y
1616528695.3,286046995.6,P
1616528715.2,286046996.5,N
1616528735.0,286046998.4,N
1616528735.9,286046998.4,N
1616528755.8,286046996.8,N
1616528775.6,286047000.1,N
1616528795.4,286046998.3,N
1616528815.3,286047002.7,N
1616528835.1,286047000.6,N
1616528855.8,286047001.1,N
1616528875.7,286047000.5,N
1616528895.5,286047002.6,N
1616528915.4,286047003.6,N
1616528935.2,286047005.1,N
1616528955.0,286047002.0,N
1616528955.9,286047002.0,N
1616528975.8,286047002.6,N
1616528995.6,286047000.9,N
1616529015.4,286046996.5,N
1616529035.3,286046998.1,N
1616529055.1,286046997.6,N
1616529075.9,286046997.5,N
1616529095.7,286046992.2,Y
1616529115.5,286046993.4,P
1616529135.4,286046991.9,N
1616529155.2,286046993.9,N
1616529175.0,286046994.7,N
1616529175.9,286046994.7,N
1616529195.8,286046990.6,Y
1616529215.6,286046998.0,P
1616529235.5,286046994.6,P
1616529255.3,286046996.2,N
1616529275.1,286046999.1,N
1616529295.9,286046994.1,Y
1616529315.7,286047000.6,P
1616529335.5,286046998.5,N
1616529355.4,286047002.6,N
1616529375.2,286047000.1,N
1616529395.1,286047004.3,N
1616529396.0,286047004.3,N
1616529415.8,286046999.9,N
1616529435.6,286046999.9,N
1616529455.5,286046999.2,N
1616529475.3,286046997.8,N
1616529495.1,286046995.3,N
1616529515.9,286046997.5,N
1616529535.7,286046994.0,N
1616529555.6,286046994.3,N
1616529575.4,286046993.7,N
1616529595.2,286046992.9,N
